CAPE
4 11 12 31 40 20 14 30 20 17 14 6 27 25 41 62 39 34 53 80 20 52 49 31 17 48 98 152 121 118 183 124 108 79 55 45 45 53 61 75 23 65 67 69 69 53 60 0 0 0 60 0 0 0
8 23 21 8 4 5 6 13 37 33 7 22 16 61 80 161 28 22 28 48 22 30 41 16 1 1 53 117 136 142 73 117 146 107 104 88 75 87 49 53 53 82 192 183 98 121 0 0 1 0 0 0 0 2
5 8 0 0 0 0 0 0 16 5 1 4 35 74 80 122 21 13 88 75 44 34 3 0 0 0 1 37 204 168 117 109 151 152 143 147 100 83 90 58 55 62 16 75 0 9 0 0 0 0 0 0 0 2
3 2 3 2 0 0 0 2 11 6 2 2 1 29 46 52 35 1 11 56 46 13 15 0 0 0 0 6 86 174 132 62 75 126 131 207 181 127 126 116 104 43 1 6 3 0 0 0 0 0 0 0 0 1
1 2 4 3 1 1 0 1 0 3 0 16 3 2 47 62 53 95 153 117 40 18 35 26 39 64 31 37 43 87 132 74 128 201 72 25 52 85 5 31 36 4 31 54 127 8 4 8 0 0 0 0 1 1
1 3 7 6 4 0 0 0 0 1 1 14 21 7 55 90 98 131 48 71 73 48 30 26 110 106 76 70 71 18 27 29 70 65 56 61 17 14 203 223 5 0 0 0 0 0 0 0 0 0 0 0 1 1
6 8 7 6 6 3 1 16 23 34 8 8 69 94 128 131 232 41 47 30 13 64 77 45 87 11 2 8 46 49 66 34 33 13 89 132 10 51 296 53 0 0 0 0 0 0 0 0 0 0 0 0 1 2
17 15 17 21 19 11 11 21 10 12 0 3 63 89 70 93 40 42 138 6 123 38 55 55 28 15 6 10 11 7 7 5 7 72 19 29 12 121 44 2 0 0 1 0 0 0 0 0 0 0 0 0 1 2
17 19 19 19 18 6 10 5 9 7 3 42 76 106 187 58 42 15 60 65 43 49 27 50 56 57 6 18 13 27 18 42 13 42 31 15 88 54 7 0 0 0 0 1 0 0 0 0 0 0 0 2 1 3
28 10 4 6 16 12 3 5 6 9 33 107 108 59 86 57 52 78 12 23 3 6 5 15 4 32 17 62 30 24 9 26 63 33 0 66 40 0 0 0 0 0 0 0 0 0 0 1 2 1 0 1 1 2
18 14 54 13 24 18 8 2 7 67 36 21 53 3 16 48 9 10 54 39 15 10 16 14 1 23 0 22 8 0 23 12 9 42 32 39 25 1 0 1 0 0 0 0 0 0 0 0 2 2 2 2 3 3
51 31 13 11 9 11 10 11 30 13 16 3 4 6 3 11 79 13 19 0 2 23 5 32 40 22 2 0 37 4 12 4 1 0 30 7 3 4 2 1 0 0 0 0 0 0 1 1 3 4 4 4 4 7
27 33 34 24 23 33 20 14 1 0 8 16 4 2 8 1 4 1 0 0 12 17 6 38 52 28 12 10 8 0 2 5 0 36 7 4 5 3 5 1 0 0 0 0 0 1 1 3 2 5 5 11 4 2
15 20 26 28 20 18 16 8 5 5 0 4 1 2 2 3 2 2 7 14 2 4 23 74 16 44 0 0 0 0 2 0 13 10 3 8 4 6 3 0 0 0 0 0 2 3 5 3 2 6 4 3 5 2
5 15 19 17 22 26 11 0 0 0 0 0 0 0 4 6 3 1 18 10 1 4 0 22 6 0 0 0 0 0 1 1 1 3 8 8 8 2 1 2 1 0 0 1 2 1 2 3 4 4 5 4 2 2
0 3 3 8 3 0 0 0 0 0 0 0 1 16 9 22 23 18 22 4 2 0 0 3 0 0 0 0 0 0 0 0 4 12 15 5 7 7 4 2 0 0 0 1 2 1 3 2 3 6 7 4 3 2
0 0 0 0 0 0 0 0 0 0 0 1 7 6 5 8 8 11 1 3 0 4 81 0 0 0 0 0 0 0 4 11 23 19 10 12 10 6 1 0 0 0 1 2 2 2 3 5 4 5 5 5 4 4
0 0 0 0 0 0 0 0 0 0 2 6 8 6 3 1 10 6 3 1 1 4 1 0 0 0 1 0 0 16 15 11 9 7 6 9 7 6 4 3 0 1 2 2 1 3 4 3 4 5 5 4 5 5
0 0 0 0 0 0 0 0 0 0 4 5 7 6 6 9 2 0 0 0 0 0 0 0 0 0 3 9 18 17 5 3 7 5 3 4 9 6 4 4 4 4 2 2 1 1 2 2 5 4 3 3 3 5
0 0 0 0 0 0 0 0 0 0 3 3 1 2 2 2 0 0 0 0 0 0 0 0 1 9 13 7 4 2 1 0 0 7 6 5 4 5 7 4 8 2 1 1 2 2 5 5 3 4 4 4 9 9
0 0 0 0 0 0 0 0 0 0 0 2 0 0 0 0 0 0 0 0 0 0 2 4 13 6 2 0 0 0 0 0 2 12 12 5 5 3 3 5 4 3 1 5 7 4 3 6 5 4 8 11 12 12
0 0 0 0 0 0 0 0 1 0 2 4 1 0 1 4 1 0 0 0 1 6 3 7 7 3 0 0 0 0 0 0 0 0 0 0 3 2 2 4 6 5 7 6 7 7 6 5 6 7 12 13 9 11
0 0 0 0 0 0 1 0 0 0 0 2 0 0 1 1 0 0 0 2 1 3 2 0 6 6 2 0 0 0 0 1 1 5 1 2 3 5 4 3 4 6 5 5 5 5 6 3 7 10 10 11 13 11
0 0 0 0 0 0 0 0 0 1 4 7 1 0 1 2 0 0 0 3 1 0 0 0 3 5 7 3 3 0 0 0 0 1 0 0 5 3 3 5 5 6 5 5 5 6 5 6 6 10 9 9 10 7
0 0 0 0 0 0 0 1 0 0 3 2 0 0 2 2 2 0 0 11 5 9 16 18 19 17 22 22 7 8 0 0 0 1 3 0 2 2 3 3 5 5 5 10 7 5 6 7 7 9 9 10 8 8
0 0 0 0 0 0 0 2 1 1 2 2 4 5 5 6 1 0 0 12 22 26 36 47 27 15 4 5 17 10 5 2 2 9 3 0 0 9 8 6 8 9 5 10 9 8 7 7 8 6 9 8 4 8
0 0 1 1 1 0 1 0 0 1 1 1 4 6 4 0 0 0 6 4 2 3 0 1 0 0 8 4 0 0 0 1 1 2 0 0 0 1 10 11 6 5 4 7 9 11 10 9 9 9 8 10 8 7
0 0 0 0 0 0 0 0 0 0 0 0 0 1 0 0 1 4 5 4 3 1 0 0 0 0 10 5 3 4 4 3 3 2 3 3 2 4 2 4 0 0 3 6 9 7 10 8 9 9 9 8 8 10
2 0 0 0 0 0 1 0 1 1 4 1 4 1 0 1 4 4 2 2 1 0 3 5 4 6 5 4 5 5 6 4 5 3 4 9 7 5 4 4 5 5 5 7 0 2 3 3 4 8 7 8 8 7
2 1 0 0 0 0 4 3 10 10 2 3 5 4 2 1 2 2 2 5 3 3 11 13 6 8 7 7 6 5 7 7 4 9 10 9 11 5 3 3 4 4 4 7 7 6 2 4 5 7 5 4 6 5
0 1 1 0 0 2 3 7 10 10 13 20 21 22 16 16 5 4 5 7 8 5 2 9 9 8 7 5 10 10 8 4 0 1 0 1 1 4 2 1 1 3 9 5 5 7 7 7 8 6 4 3 2 1
1 0 1 0 2 3 5 12 13 11 10 9 4 12 9 10 8 2 4 6 8 8 4 7 9 10 3 24 29 41 0 7 2 3 0 3 5 2 4 1 2 2 1 4 5 8 5 6 7 6 6 3 2 2
2 2 1 1 2 2 9 9 1 1 6 4 3 3 7 8 5 0 0 2 8 12 9 9 21 36 13 5 7 17 0 2 0 1 1 0 1 1 6 8 7 7 5 6 6 6 5 3 4 4 4 2 2 2
CIN
0 -1 -3 -3 -3 -2 -1 -1 0 0 0 -3 0 0 0 -1 -1 -1 0 -2 0 -1 0 0 0 -4 0 0 0 0 0 0 0 0 0 0 0 0 0 -3 0 0 -1 0 -2 0 0 0 0 0 -28 0 0 0
0 -2 -3 -3 -1 0 0 -1 -2 0 0 0 0 0 -1 -2 -2 -2 0 0 0 0 0 0 -3 -1 -9 0 0 0 0 -1 0 0 0 0 0 0 0 0 0 0 -1 0 0 -1 -3 0 -7 0 0 0 0 0
0 0 0 0 0 0 0 0 -1 -3 -5 -2 0 -3 -1 0 -1 -1 0 0 0 0 0 -1 0 0 -94 -57 -1 0 0 0 0 0 -1 0 0 0 0 -2 0 0 -4 -4 -1 -35 0 0 0 0 0 0 0 0
0 0 0 0 0 0 0 0 0 -2 0 0 -1 0 -8 -8 0 0 0 0 0 0 0 0 0 0 0 -66 -17 0 0 -7 -3 0 0 0 -2 0 0 -1 0 0 -4 0 0 0 0 0 0 0 0 0 0 0
0 0 0 0 0 0 0 0 0 -1 -3 0 0 0 -9 -8 -37 -9 -7 0 0 0 -6 -1 0 -1 -39 -55 -50 -2 0 0 0 0 0 0 -1 0 0 -1 -21 -1 -3 -4 0 -1 -19 -2 0 0 0 0 0 0
0 0 0 0 0 0 0 0 0 0 -4 -8 -5 0 -1 -8 -4 0 0 -1 -19 0 0 0 0 -1 -13 -27 -18 -39 -7 0 -1 0 0 0 -2 -1 0 -1 -9 -1 0 0 0 0 0 0 0 0 0 0 0 0
0 0 0 0 0 0 0 -1 -1 0 -2 -4 -1 0 0 0 0 0 -1 -7 -6 0 0 -1 0 0 -1 0 -12 0 0 0 0 -1 0 -3 -7 0 0 -3 0 0 0 0 0 0 0 0 0 0 0 0 0 0
0 0 0 0 0 0 0 0 -1 0 0 -9 -1 0 0 0 -2 -1 -1 -2 -1 0 -1 0 0 0 0 -1 -4 0 0 0 -1 0 -7 -1 -1 0 -1 -6 0 0 0 0 0 0 0 0 0 0 0 0 0 0
0 0 0 0 0 0 0 0 0 0 0 0 0 0 0 0 0 0 -5 0 -1 0 -1 0 -1 -1 0 0 -1 0 0 0 0 0 0 -2 0 -1 -5 0 0 0 0 0 0 0 0 0 0 0 0 0 0 0
-2 -4 -1 0 0 0 0 0 0 -1 -3 0 0 0 0 -1 -10 -2 -6 -1 0 0 0 0 -1 0 0 0 0 0 0 -1 0 0 -1 -1 0 0 0 0 0 0 0 0 0 0 0 0 0 0 0 0 0 0
0 -4 -41 -82 0 0 0 0 0 0 -1 -4 0 0 -6 -2 0 0 0 0 0 0 0 0 0 0 0 0 -4 -1 -2 -12 0 -1 0 0 0 0 0 0 0 0 0 0 0 0 0 0 0 0 0 0 0 0
0 0 0 0 0 0 0 0 0 -1 0 -2 0 0 0 0 0 0 0 0 0 0 -1 0 0 -1 -3 0 -3 -28 -9 -7 0 0 0 0 0 0 0 0 0 0 0 0 0 0 0 0 0 0 0 0 0 0
0 0 0 0 0 0 -1 -2 -11 0 -1 0 0 0 0 0 0 0 0 0 -10 0 0 -1 -2 -20 -33 -33 -49 -5 -8 0 0 0 0 0 0 0 0 0 0 0 0 0 0 0 0 0 0 0 0 0 0 0
0 0 0 -1 -3 -4 -7 -18 -15 -10 0 -1 -1 0 0 0 0 0 0 -13 0 0 -1 -1 -32 -16 0 0 0 0 0 0 -1 0 0 0 0 0 0 0 0 0 0 0 0 0 0 0 0 0 0 0 0 0
-4 -1 -1 -3 -6 -5 -14 0 0 0 0 0 0 0 0 0 0 0 0 0 0 0 -2 -30 -12 0 0 0 0 0 0 0 0 0 0 0 0 0 0 0 0 0 0 0 0 0 0 0 0 0 0 0 0 0
0 0 0 -6 -13 0 0 0 0 0 0 0 0 0 -1 -1 0 0 0 0 0 0 0 -48 0 0 0 0 0 0 0 0 0 0 0 0 0 0 0 0 0 0 0 0 0 0 0 0 0 0 0 0 0 0
0 -1 0 -6 0 0 0 0 0 0 0 0 0 0 0 0 0 -1 0 0 0 -34 -15 0 0 0 0 0 0 0 0 0 0 0 0 0 0 0 0 0 0 0 0 0 0 0 0 0 0 0 0 0 0 0
0 0 0 0 0 0 0 0 0 0 0 0 0 0 0 0 0 0 0 0 -5 -40 -4 0 0 0 0 0 0 0 0 0 0 0 0 0 0 0 0 0 0 0 0 0 0 0 0 0 0 0 0 0 0 0
0 0 0 0 0 0 0 0 0 0 0 0 0 0 0 0 0 0 0 0 0 0 0 0 0 0 0 0 0 0 0 0 0 0 0 0 0 0 0 0 0 0 0 0 0 0 0 0 0 0 0 0 0 0
0 0 0 0 0 0 0 0 0 0 0 0 0 0 0 0 0 0 0 0 0 0 0 0 0 0 0 -1 -9 -7 0 0 0 0 0 0 0 0 0 0 0 0 0 0 0 0 0 0 0 0 0 0 0 0
0 0 0 0 0 0 0 0 0 0 0 0 0 0 0 0 0 0 0 0 0 0 0 0 0 0 0 0 0 0 0 0 -2 0 0 0 0 0 0 0 0 0 0 0 0 0 0 0 0 0 0 0 0 0
0 0 0 0 0 0 0 0 0 0 0 0 0 0 0 0 0 0 0 0 0 0 0 0 0 0 0 0 0 0 0 0 0 0 0 0 0 0 0 0 0 0 0 0 0 0 0 0 0 0 0 0 0 0
0 0 0 0 0 0 0 0 0 0 0 0 0 0 0 0 0 0 0 0 0 0 0 0 0 0 0 0 0 0 0 -1 -3 0 0 0 0 0 0 0 0 0 0 0 0 0 0 0 0 0 0 0 0 0
0 0 0 0 0 0 0 0 0 0 0 0 0 0 0 0 0 0 0 0 0 0 0 0 0 0 0 0 0 0 0 0 0 0 0 -1 0 0 0 0 0 0 0 0 0 0 0 0 0 0 0 0 0 0
0 0 0 0 0 0 0 0 0 0 0 0 0 0 0 0 0 0 0 0 0 0 0 0 0 0 0 0 0 0 0 0 0 0 0 0 0 0 0 0 0 0 0 0 0 0 0 0 0 0 0 0 0 0
0 0 0 0 0 0 0 0 0 0 0 0 0 0 0 0 0 0 0 0 0 0 0 0 0 0 -4 -3 0 0 -1 0 0 0 0 0 0 0 0 0 0 0 0 0 0 0 0 0 0 0 0 0 0 0
0 0 0 0 0 0 0 0 0 0 0 0 0 0 0 0 0 0 0 0 -7 0 -1 -4 -2 -3 0 -2 -3 0 0 0 0 0 0 0 0 0 0 0 0 0 0 0 0 0 0 0 0 0 0 0 0 0
0 0 0 0 0 0 0 0 0 0 0 0 0 0 0 0 0 0 -1 0 0 0 0 0 0 0 0 0 0 0 0 0 0 0 0 0 0 0 0 0 0 0 0 0 0 0 0 0 0 0 0 0 0 0
0 0 0 0 0 0 0 0 0 0 -2 0 0 0 0 0 0 0 0 0 0 0 0 0 0 0 0 0 0 0 0 0 0 0 0 0 0 0 0 0 0 0 0 0 0 0 0 0 0 0 0 0 0 0
0 0 0 0 0 0 0 0 0 0 -2 -1 0 0 -2 -3 0 0 0 0 0 0 0 0 0 0 0 -2 0 0 0 0 0 0 0 0 0 0 0 0 0 0 0 0 0 0 0 0 0 0 0 0 0 0
0 0 0 0 0 0 0 0 0 0 0 0 0 0 0 0 0 0 0 0 0 0 0 0 -1 0 0 -2 0 0 0 -2 -1 0 0 0 0 0 0 0 0 0 0 0 0 0 0 0 0 0 0 0 0 0
0 0 0 0 0 0 0 0 0 0 0 0 0 0 0 0 0 0 0 0 0 0 0 0 0 0 0 0 0 0 0 0 0 0 0 0 0 0 0 0 0 0 0 0 0 0 0 0 0 0 0 0 0 0
0 0 0 0 0 0 0 0 -1 0 0 0 0 0 0 0 0 0 0 0 0 0 0 0 0 0 -1 -1 -3 0 0 0 0 0 0 0 0 0 0 0 0 0 0 0 0 0 0 0 0 0 0 0 0 0
Wind_Speed
10 7 5 4 5 3 4 2 3 11 10 10 25 21 17 20 17 8 6 5 3 3 6 6 7 7 9 11 9 7 6 6 8 9 7 8 8 11 14 13 16 12 8 8 13 10 12 10 11 10 1 1 3 6
6 5 4 3 3 3 3 5 2 8 9 11 9 18 19 20 17 9 5 4 2 2 4 1 5 5 4 3 7 9 5 6 6 8 8 6 7 5 14 14 12 10 12 8 9 3 3 15 0 4 2 3 6 10
6 6 5 4 4 4 5 5 3 3 3 2 6 11 17 22 18 6 6 7 3 2 2 3 8 10 9 10 6 7 4 6 4 2 3 4 8 6 10 13 13 9 7 7 1 7 7 10 7 4 4 4 8 12
8 7 7 7 7 7 7 6 5 6 6 12 9 9 14 18 18 10 6 6 4 3 3 5 5 13 11 14 16 12 5 2 4 3 4 4 5 4 7 7 8 5 7 9 9 5 5 11 13 10 8 9 11 12
10 10 10 10 10 10 9 8 7 3 3 8 16 13 15 17 20 9 5 7 5 3 1 1 6 12 9 16 18 16 13 9 3 4 5 6 3 2 2 3 10 7 7 9 7 2 6 3 10 11 11 12 14 16
13 14 14 13 12 12 12 9 7 5 4 4 19 21 18 17 18 5 1 6 7 3 2 3 1 7 13 13 15 15 12 7 4 2 4 5 4 3 4 4 3 7 4 2 2 5 6 5 9 10 10 12 13 14
17 17 17 16 15 15 13 10 8 9 6 4 13 24 21 19 9 5 1 2 14 6 2 4 4 4 6 8 6 7 10 3 4 2 4 3 3 9 4 7 6 4 3 5 8 8 6 7 6 9 11 12 13 13
21 21 21 19 18 17 14 11 8 5 2 1 15 21 18 17 3 5 3 5 11 4 3 4 3 3 5 5 4 3 4 4 4 3 2 4 2 5 5 5 4 4 6 7 2 1 1 8 13 12 13 13 15 15
28 29 28 27 26 25 20 16 11 7 8 6 19 19 10 4 4 3 8 11 2 3 4 5 3 0 4 3 4 4 3 5 3 5 5 5 5 6 2 5 7 8 4 6 5 7 9 11 13 13 14 15 15 16
2 10 17 21 24 26 27 21 17 13 10 22 16 4 4 5 8 12 4 2 3 4 2 4 0 3 4 3 3 5 5 5 6 5 3 5 3 4 2 3 8 8 8 9 9 7 9 11 12 13 13 12 13 14
23 21 19 23 24 25 27 24 17 24 16 2 3 2 3 16 3 3 5 6 6 5 5 3 7 1 2 2 4 0 3 2 4 4 4 4 3 4 6 8 9 7 9 3 1 2 8 11 13 13 12 12 13 14
27 26 27 27 27 27 25 23 19 4 4 4 5 4 3 4 4 4 3 3 5 3 4 5 4 1 3 2 2 2 2 2 3 2 3 3 4 6 8 9 7 8 7 2 2 5 8 10 12 12 12 12 13 12
24 27 27 27 26 25 26 18 10 17 12 5 2 2 1 3 5 6 7 3 3 5 5 5 4 1 3 2 3 1 2 2 3 3 2 2 5 7 9 7 8 7 6 6 7 8 9 11 10 11 12 10 13 13
18 21 23 24 23 19 13 10 12 7 2 1 3 3 2 3 1 0 2 3 3 0 6 4 3 2 2 3 1 3 2 2 4 4 2 3 7 8 8 7 8 7 6 7 8 8 9 10 10 10 11 12 13 13
20 19 16 11 10 10 8 7 9 3 2 2 2 3 1 1 0 0 2 2 1 3 3 4 3 1 2 3 1 3 4 4 3 1 2 3 7 8 7 6 7 7 6 7 7 9 9 10 11 11 11 11 12 13
10 14 5 5 5 7 3 6 4 2 2 2 3 2 0 2 3 1 2 2 1 1 1 2 2 2 2 2 3 2 3 2 3 2 3 4 6 5 5 5 5 6 7 7 6 8 8 8 9 10 9 9 10 13
7 4 12 9 5 5 11 3 2 4 3 2 3 1 2 2 3 2 1 2 2 1 2 1 2 3 2 2 2 1 1 3 3 3 3 3 5 6 6 6 6 6 7 8 8 8 8 8 9 10 10 9 9 10
4 6 12 7 3 2 3 4 3 3 5 3 2 3 2 2 1 1 1 2 2 2 1 2 3 2 2 3 2 3 3 3 4 4 4 4 5 6 5 7 7 7 8 7 8 8 8 9 9 7 8 10 9 10
4 7 9 10 3 3 2 3 3 4 3 2 1 1 2 2 2 2 2 2 3 3 4 2 2 1 2 1 2 4 4 3 4 3 3 4 4 6 7 7 7 7 8 8 8 6 6 7 4 6 7 9 8 8
6 7 12 8 3 2 4 3 1 3 2 2 0 1 1 1 2 2 3 3 2 1 3 2 2 2 1 2 2 2 4 5 6 5 4 3 3 5 6 6 5 7 6 6 5 6 5 5 4 6 7 8 9 10
5 6 7 4 3 5 4 2 3 3 2 2 1 1 2 1 2 3 3 3 2 2 2 1 3 3 3 3 3 3 5 5 4 3 4 4 4 4 4 4 5 5 5 5 6 6 6 5 5 6 7 7 7 8
3 7 2 3 3 3 3 3 2 2 0 2 1 1 1 1 1 2 2 2 2 1 2 2 4 5 4 5 5 5 6 7 6 5 6 8 5 5 4 4 5 5 5 5 5 6 6 5 6 6 7 7 8 8
5 3 3 4 3 3 3 2 1 1 2 2 2 2 1 1 1 2 1 1 1 1 1 3 5 4 6 5 7 7 6 6 4 4 4 3 3 3 4 4 3 4 5 4 4 5 5 7 7 7 7 8 8 9
3 4 4 3 3 3 1 1 1 2 1 2 2 2 2 1 1 2 2 2 3 3 4 5 5 5 4 6 4 4 4 3 4 4 3 4 4 4 3 3 3 3 3 4 5 5 6 6 8 7 8 9 9 10
1 4 3 3 1 1 2 2 1 1 2 1 2 2 2 1 2 2 2 3 6 5 4 5 4 3 5 4 4 4 4 5 4 4 4 3 4 4 4 3 4 4 4 5 6 7 7 7 8 8 9 10 11 13
1 2 1 1 1 1 2 2 3 2 2 3 3 1 0 2 3 4 2 4 4 5 5 4 4 4 3 3 4 4 5 5 4 4 4 5 5 5 5 5 5 5 5 5 7 8 9 9 9 11 10 11 13 13
2 2 2 1 1 2 2 1 1 2 3 4 3 4 3 4 4 1 2 1 2 2 2 3 3 3 4 4 3 3 3 3 1 1 2 3 4 3 4 5 5 2 7 8 8 9 10 10 10 10 10 10 11 11
2 0 2 2 1 1 2 1 2 2 1 1 2 4 3 3 1 2 1 2 4 3 3 2 1 1 3 3 4 4 4 3 4 3 4 3 2 1 2 2 2 5 6 7 8 8 9 10 10 10 11 11 10 9
1 2 1 1 1 1 2 2 1 1 1 1 2 2 2 1 1 2 3 3 3 3 3 4 3 3 4 4 4 3 5 5 6 5 6 5 4 4 3 3 3 4 5 6 8 8 10 9 9 9 10 9 9 9
2 1 1 2 2 3 2 1 1 1 1 2 2 2 2 2 2 2 4 5 5 5 4 3 5 5 6 6 5 4 3 2 1 4 5 5 3 3 4 4 4 5 6 7 8 8 10 9 9 8 9 8 8 8
0 1 1 1 2 1 1 1 2 2 3 3 4 6 5 1 2 4 6 6 5 5 6 6 6 5 6 6 5 5 4 4 4 4 2 2 2 3 4 5 5 6 7 8 9 9 10 9 8 10 11 11 11 10
1 2 1 2 1 1 3 2 2 3 2 3 5 3 2 3 4 4 4 7 8 8 8 8 8 7 5 3 3 2 1 3 5 6 7 3 3 3 4 5 5 5 7 8 8 8 11 10 9 9 10 11 12 12
2 2 2 2 2 3 2 3 1 3 3 3 4 2 4 3 5 1 2 3 5 6 7 6 5 4 4 6 5 4 5 3 4 5 6 5 5 6 4 4 5 6 8 7 7 8 10 10 9 10 10 11 11 11
Wind_Direction
253 273 258 230 226 243 296 351 81 6 92 73 153 159 168 156 143 137 132 172 158 163 149 189 173 158 183 205 191 142 163 189 183 207 218 216 234 241 244 250 251 226 231 219 220 236 230 178 156 216 35 47 139 164
239 237 211 220 250 280 319 333 4 72 22 121 130 154 154 155 145 132 129 164 103 199 82 282 199 228 230 287 253 185 247 157 198 216 213 213 219 241 229 245 210 245 227 247 218 267 109 180 50 136 197 168 168 156
231 231 234 246 254 272 288 294 275 83 40 317 140 148 148 155 153 140 133 135 148 177 231 240 228 214 216 218 253 238 227 233 177 275 352 259 242 231 226 229 255 225 214 232 235 202 184 208 205 193 180 184 162 151
226 239 239 241 253 256 261 261 255 172 273 214 206 174 163 162 159 139 139 164 185 142 223 215 224 235 225 215 214 229 235 216 269 190 219 256 256 223 256 282 253 296 165 220 239 230 224 220 213 188 166 143 143 147
239 240 239 242 251 257 252 247 246 197 277 189 197 191 173 169 162 157 153 181 208 251 355 324 306 230 210 204 208 212 217 212 209 212 218 240 265 266 245 271 249 191 217 220 248 282 245 15 185 165 161 154 154 148
246 241 236 235 237 242 253 261 250 222 206 211 186 190 182 166 148 135 132 220 213 223 290 261 123 201 190 189 195 197 205 211 219 230 268 257 162 168 235 227 178 196 222 261 324 66 87 108 131 163 153 148 149 152
250 248 245 239 232 229 235 228 211 190 161 244 187 175 172 157 163 155 182 48 169 151 202 243 224 149 180 179 189 196 201 194 198 181 221 253 233 195 263 253 132 165 172 133 126 126 105 157 150 143 139 139 146 145
259 253 246 236 225 218 211 208 205 197 116 292 155 159 160 156 121 245 120 124 141 115 210 265 219 191 194 162 146 143 140 166 183 173 209 233 188 230 246 134 147 138 134 141 125 343 38 134 137 138 138 140 143 145
250 239 234 227 219 212 203 202 186 194 212 196 155 145 133 180 190 201 121 159 327 240 208 218 251 324 165 133 142 147 173 172 153 190 223 203 203 221 42 161 171 160 150 143 111 109 131 145 145 145 150 153 148 150
91 193 198 200 187 189 188 185 183 188 196 133 133 143 164 186 148 113 68 185 213 210 231 244 155 221 208 156 106 145 194 151 176 168 159 233 224 100 38 159 148 143 132 138 125 138 151 156 159 161 163 161 156 155
68 81 115 125 141 152 162 168 168 135 115 101 147 158 79 113 131 186 178 206 188 206 187 193 211 135 142 95 117 231 143 185 190 133 234 191 198 118 122 123 126 134 143 99 341 158 181 170 165 164 163 162 159 158
68 79 94 109 124 133 142 148 148 134 141 134 104 107 107 157 175 209 221 182 219 161 163 182 147 118 144 258 157 118 102 195 162 136 214 229 98 128 136 130 132 140 154 73 61 141 155 159 162 162 162 160 159 153
58 73 87 100 110 118 126 143 108 112 130 171 159 101 234 123 195 208 178 182 161 154 167 167 131 60 155 58 75 114 144 113 148 195 215 55 127 150 146 129 127 128 126 112 109 124 137 146 149 154 151 142 137 137
74 71 80 85 87 83 80 93 132 150 279 110 105 128 273 176 193 57 34 59 61 232 148 136 94 56 51 70 13 120 80 213 190 212 174 125 157 148 149 138 141 138 129 127 126 126 132 135 139 134 138 142 142 147
72 91 90 100 122 127 134 184 200 228 350 44 68 62 55 342 206 82 18 129 85 140 146 124 97 77 68 107 51 132 168 197 240 127 107 120 146 147 145 145 139 140 138 134 139 139 138 140 144 144 150 152 148 145
67 98 47 340 341 25 28 145 152 147 91 81 46 186 358 222 112 83 60 93 75 103 137 69 110 101 84 107 176 171 202 208 108 110 86 136 149 143 138 139 140 140 146 142 142 136 138 145 151 144 143 149 154 155
63 39 344 336 322 25 18 58 53 60 68 60 84 64 26 42 49 57 336 49 14 245 84 109 90 64 126 147 147 211 33 81 107 97 68 90 143 138 134 127 130 143 141 141 138 139 137 135 135 145 150 152 158 156
46 343 344 4 170 83 46 30 71 61 65 36 49 32 32 37 45 66 352 350 262 97 71 77 132 129 141 171 167 129 111 89 70 83 74 73 104 121 133 136 143 147 137 137 142 139 145 153 162 162 148 151 148 148
17 8 360 11 47 82 69 68 359 93 59 21 33 19 30 51 32 354 331 27 63 78 114 118 111 129 133 98 106 116 140 154 148 113 84 63 88 128 133 137 144 138 136 145 156 164 162 174 172 157 156 161 162 159
346 23 5 9 8 85 85 57 340 86 114 78 59 43 46 40 333 341 24 35 49 59 74 67 88 79 91 94 72 99 140 138 142 148 131 110 112 140 141 154 149 134 135 143 149 156 155 159 162 166 168 174 166 166
0 358 346 356 54 49 67 27 71 46 109 90 64 0 50 13 35 20 30 354 62 40 115 107 110 103 72 84 84 114 129 149 156 183 164 151 144 137 136 138 150 158 163 170 174 172 190 184 162 167 169 168 168 160
351 334 17 21 66 65 73 25 34 78 75 91 120 38 66 80 32 31 331 60 79 120 148 136 142 138 135 121 105 97 106 101 96 102 97 125 150 154 161 163 171 179 187 188 186 181 182 162 159 162 165 155 154 153
331 3 47 23 82 50 83 307 104 67 140 130 157 137 137 177 354 301 143 93 126 71 125 157 144 128 121 116 123 126 135 142 137 139 148 147 137 139 152 170 184 191 191 187 186 174 170 158 163 158 150 153 152 147
18 41 36 43 24 92 293 79 113 119 125 190 180 186 176 197 310 239 224 156 149 147 168 163 159 146 143 154 162 162 155 150 132 129 150 166 176 169 181 176 183 195 206 160 174 169 161 167 160 163 163 160 159 159
1 23 353 66 37 103 103 114 26 157 167 186 164 208 180 198 226 228 232 158 168 179 164 161 153 178 172 164 163 160 167 171 167 167 172 181 144 140 160 171 179 183 168 172 177 175 172 165 175 172 171 171 168 166
86 12 345 110 119 256 166 181 190 178 157 183 200 106 162 238 237 234 194 171 158 161 167 175 180 179 181 189 171 176 178 182 183 198 171 188 190 183 181 183 193 198 198 199 183 182 176 176 176 175 176 173 171 165
165 156 116 80 321 133 137 122 131 218 202 204 178 180 203 233 237 163 126 133 129 112 128 152 163 198 224 177 134 124 144 170 191 61 67 187 189 203 194 205 211 210 168 182 182 182 178 176 173 175 172 170 174 175
48 163 226 163 143 335 167 180 213 229 172 116 174 200 225 228 8 122 91 113 122 119 113 89 63 151 187 157 134 141 130 120 111 114 107 103 100 148 158 155 89 144 161 172 173 174 174 173 170 172 172 171 170 173
105 65 188 56 248 179 218 202 227 200 103 204 261 245 243 236 105 168 161 168 155 142 155 166 141 132 122 124 128 146 147 162 175 187 213 218 192 181 165 152 146 152 158 157 163 167 171 169 170 170 169 168 164 164
88 296 155 135 226 229 167 253 218 151 197 252 287 265 233 221 196 174 174 180 180 184 183 176 160 172 162 161 153 159 173 178 219 247 236 227 209 125 163 166 161 160 162 158 154 144 145 143 133 133 139 143 155 159
102 235 221 221 253 171 190 214 268 259 239 243 232 258 266 316 229 209 205 194 189 175 173 187 188 191 183 182 186 188 205 195 199 195 171 109 133 158 177 174 168 164 164 164 164 165 160 165 171 170 171 171 170 170
269 238 234 252 219 114 231 242 264 258 220 243 245 221 213 223 240 195 194 187 187 191 192 193 202 202 199 188 171 171 181 161 182 190 176 176 168 176 170 162 163 166 167 169 170 169 175 174 173 177 178 176 173 174
240 231 242 268 239 232 189 235 247 281 244 243 242 246 250 254 248 159 134 239 225 197 191 191 193 180 180 190 185 171 170 136 130 159 162 157 160 165 155 155 161 162 162 164 164 168 173 174 172 170 168 166 165 162